Date,TemperatureHighF,TemperatureAvgF,TemperatureLowF,DewpointHighF,DewpointAvgF,DewpointLowF,HumidityHigh,HumidityAvg,HumidityLow,PressureMaxIn,PressureMinIn,WindSpeedMaxMPH,WindSpeedAvgMPH,GustSpeedMaxMPH,PrecipitationSumIn
2013-1-1,13.6,7.0,2.5,5.4,-16.6,-99.9,86,62,66,30.27,30.17,10,-182,10,0.00
2013-1-2,27.1,17.5,6.9,20.3,-4.4,-99.9,85,62,56,30.21,30.08,13,-154,13,0.00
2013-1-3,24.4,16.8,13.3,19.9,-8.0,-99.9,85,65,80,30.23,30.06,18,-207,18,0.00
2013-1-4,27.9,17.4,10.5,19.3,-6.5,-99.9,85,62,69,30.22,30.08,22,-182,23,0.00
2013-1-5,36.4,24.9,16.2,32.4,4.9,-99.9,94,71,71,30.25,29.88,18,-163,18,0.10
2013-1-6,34.1,19.9,16.5,31.7,-7.0,-99.9,92,64,74,30.31,29.86,17,-234,17,0.02
2013-1-7,37.8,23.7,13.2,27.0,-0.6,-99.9,91,61,60,30.30,30.06,16,-181,21,0.00
2013-1-8,43.0,29.1,25.7,31.1,5.1,-99.9,93,62,62,30.13,29.93,11,-182,20,0.02
2013-1-9,40.2,29.8,27.0,32.0,7.3,-99.9,84,60,59,30.45,29.91,32,-146,32,0.00
2013-1-10,39.6,31.8,18.0,34.8,27.5,15.5,95,84,73,30.51,29.91,18,4,18,0.49
2013-1-11,50.7,42.5,36.0,46.9,41.3,34.7,97,95,86,29.91,29.61,20,3,20,0.12
2013-1-12,50.9,29.1,24.7,47.0,5.6,-99.9,89,64,70,29.99,29.61,24,-175,24,0.00
2013-1-13,24.7,13.2,12.4,21.5,-15.2,-99.9,88,59,73,30.22,29.88,22,-235,22,0.00
2013-1-14,22.5,13.5,8.8,10.7,-9.9,-99.9,81,59,56,30.47,30.22,14,-164,15,0.00
2013-1-15,26.3,4.8,11.5,17.2,-69.7,-99.9,85,21,67,30.45,30.11,8,-728,8,0.00
2013-1-16,32.0,19.4,24.1,28.3,-21.3,-99.9,87,49,62,30.11,29.75,27,-360,27,0.00
2013-1-17,27.8,15.7,11.1,18.2,-10.3,-99.9,84,53,47,30.42,30.05,16,-168,16,0.00
2013-1-18,41.1,28.8,8.9,32.5,21.9,5.3,87,76,65,30.45,29.84,28,6,30,0.00
2013-1-19,43.3,36.2,15.4,35.0,25.1,-99.9,82,70,44,29.88,29.63,35,-21,35,0.00
2013-1-20,15.4,9.3,5.5,4.1,-0.3,-2.0,76,65,49,30.30,29.88,27,6,31,0.00
2013-1-21,8.6,2.1,-4.5,2.7,-6.1,-12.0,83,68,57,30.33,30.15,20,6,25,0.00
2013-1-22,5.8,-0.9,-8.0,-5.1,-9.4,-15.0,76,67,59,30.42,30.31,18,6,18,0.00
2013-1-23,16.6,10.2,0.2,12.6,3.6,-5.9,87,74,66,30.43,30.13,14,5,18,0.00
2013-1-24,18.1,10.0,-0.1,8.8,0.7,-6.7,74,66,54,30.69,30.41,12,1,13,0.00
2013-1-25,22.7,18.6,15.1,18.5,12.6,5.5,87,77,57,30.41,29.97,16,4,16,0.00
2013-1-26,25.3,16.7,5.8,14.1,8.9,2.0,85,71,54,30.42,30.20,8,2,12,0.00
2013-1-27,32.2,27.5,22.7,30.9,22.8,13.7,95,83,66,30.39,29.89,22,3,22,0.00
2013-1-28,40.9,35.9,32.3,37.0,33.2,30.3,96,90,75,29.97,29.79,13,3,13,0.21
2013-1-29,57.9,44.8,35.9,56.8,43.6,34.0,98,96,93,29.83,29.43,20,3,20,2.10
2013-1-30,37.6,27.9,15.2,36.2,25.4,11.0,95,90,83,29.58,29.25,22,5,22,0.17
2013-1-31,15.5,10.1,1.5,11.3,4.2,-4.0,84,77,68,30.15,29.58,23,8,23,0.00
2013-2-1,6.3,1.4,-3.4,2.7,-4.8,-8.6,85,75,65,30.35,30.15,16,8,20,0.00
2013-2-2,14.3,7.6,1.3,5.3,1.7,-3.4,87,77,59,30.20,30.06,11,2,11,0.00
2013-2-3,17.6,11.5,1.5,10.8,5.9,-2.7,87,78,65,30.08,29.98,15,5,23,0.00
2013-2-4,20.4,12.9,5.0,12.8,7.7,-0.1,88,80,63,30.07,29.96,8,1,8,0.00
2013-2-5,26.4,17.9,0.1,22.2,13.3,-3.8,90,82,70,30.13,29.82,16,4,17,0.00
2013-2-6,32.7,22.1,1.8,29.0,16.1,-1.6,93,78,61,30.26,30.11,7,1,11,0.02
2013-2-7,33.4,31.3,22.0,31.5,29.1,19.8,95,91,85,30.14,29.91,9,1,9,0.02
2013-2-8,25.2,19.2,5.1,20.0,15.7,1.6,93,86,75,30.43,30.03,11,1,11,0.00
2013-2-9,28.5,19.4,2.0,23.8,16.5,-1.5,93,88,81,30.44,30.13,9,1,9,0.00
2013-2-10,43.1,34.3,24.1,42.0,32.6,22.0,97,93,84,30.13,29.42,22,5,22,1.27
2013-2-11,40.8,31.2,26.0,36.3,26.3,20.6,87,82,77,29.98,29.41,39,14,39,0.00
2013-2-12,27.4,23.6,19.9,21.6,18.5,16.0,90,81,71,30.09,29.89,16,6,19,0.00
2013-2-13,39.1,31.0,21.1,30.0,25.8,18.9,92,81,68,29.89,29.70,15,3,15,0.00
2013-2-14,35.1,32.2,27.3,32.8,28.7,22.0,93,87,77,29.98,29.58,21,4,21,0.05
2013-2-15,27.2,19.3,11.9,24.7,11.1,4.7,90,70,57,30.21,29.98,13,4,14,0.00
2013-2-16,17.5,10.2,3.5,4.8,1.7,-2.2,84,69,54,30.23,30.16,13,3,16,0.00
2013-2-17,27.2,16.0,1.9,14.4,3.9,-3.2,80,60,39,30.26,30.02,12,2,12,0.00
2013-2-18,46.7,35.7,25.9,40.4,28.7,14.0,95,76,62,30.03,29.41,18,4,18,0.43
2013-2-19,30.3,13.9,6.6,29.0,9.1,-0.2,94,81,70,30.17,29.47,26,10,26,0.00
2013-2-20,20.2,11.9,4.6,10.3,5.1,-1.4,85,74,64,30.42,30.17,16,4,16,0.00
2013-2-21,25.9,20.0,10.9,23.1,16.1,6.5,90,85,73,30.47,30.12,27,4,27,0.00
2013-2-22,32.1,27.5,23.5,29.0,24.8,20.8,93,90,83,30.12,29.79,24,5,24,0.00
2013-2-23,28.6,24.8,18.7,24.0,19.9,14.7,88,82,71,29.94,29.84,16,6,16,0.00
2013-2-24,36.9,25.6,17.7,26.2,20.0,14.9,92,80,63,30.16,29.94,10,3,10,0.03
2013-2-25,43.4,29.6,14.9,27.8,22.7,12.5,93,77,52,30.20,30.06,8,1,8,0.01
2013-2-26,34.1,31.8,29.9,30.4,28.1,25.6,95,86,76,30.07,29.60,24,6,24,0.00
2013-2-27,33.3,31.1,28.3,31.9,29.8,27.1,96,95,92,29.75,29.58,17,2,17,0.02
2013-2-28,34.2,30.0,23.9,30.0,26.0,19.1,93,85,76,30.13,29.75,16,2,16,0.04
2013-3-1,24.5,23.3,20.9,20.0,18.4,15.0,85,81,76,30.25,30.10,15,2,15,0.00
2013-3-2,26.5,18.8,9.2,16.6,12.3,5.9,88,76,65,30.25,30.19,12,2,12,0.00
2013-3-3,29.4,17.7,5.2,14.2,7.1,0.5,89,66,31,30.19,30.12,12,2,12,0.00
2013-3-4,32.7,22.3,3.7,24.8,16.6,0.0,91,79,67,30.18,30.08,16,4,16,0.01
2013-3-5,30.9,28.6,25.4,26.5,24.5,22.6,93,84,72,30.08,29.90,20,5,20,0.00
2013-3-6,32.9,29.2,25.6,27.1,24.7,21.9,89,83,78,30.31,30.06,13,3,13,0.03
2013-3-7,37.9,28.1,19.0,24.8,20.3,14.9,87,73,54,30.46,30.31,10,2,10,0.08
2013-3-8,42.6,29.0,12.6,29.8,22.7,10.0,93,78,59,30.50,30.32,11,2,11,0.02
2013-3-9,40.4,35.1,29.3,33.7,29.8,24.0,88,81,73,30.32,29.83,17,3,17,0.04
2013-3-10,43.4,38.9,36.0,42.2,37.5,33.5,96,95,88,29.83,29.61,15,1,15,0.98
2013-3-11,38.3,34.8,32.6,37.5,33.7,31.0,97,96,94,29.63,29.51,12,2,12,0.07
2013-3-12,31.9,28.4,25.7,28.0,22.9,19.3,92,80,66,30.00,29.73,18,7,18,0.00
2013-3-13,31.2,24.7,18.7,21.0,13.2,8.7,84,63,39,30.31,29.99,21,6,21,0.00
2013-3-14,36.2,26.9,17.0,26.8,13.0,-99.9,91,65,42,30.32,30.07,14,-43,14,0.00
2013-3-15,38.0,31.2,28.2,31.8,28.3,25.2,94,89,75,30.07,29.81,16,4,16,0.05
2013-3-16,32.6,27.3,23.0,26.3,21.8,17.4,92,80,64,30.15,29.81,15,4,15,0.01
2013-3-17,29.7,24.5,17.1,22.7,16.1,8.8,81,70,61,30.28,30.05,19,4,19,0.00
2013-3-18,34.0,28.4,17.5,31.5,24.7,11.2,92,86,76,30.05,29.58,28,8,28,0.05
2013-3-19,28.6,19.5,12.7,13.4,10.4,7.7,80,68,48,30.05,29.70,35,14,35,0.00
2013-3-20,19.4,14.1,9.4,9.0,-0.3,-99.9,67,60,56,30.08,30.03,21,-35,21,0.00
2013-3-21,27.4,16.9,8.5,15.0,0.2,-99.9,79,61,57,30.08,30.03,16,-78,16,0.00
2013-3-22,34.9,22.9,12.7,18.9,8.3,-99.9,84,63,49,30.11,30.04,9,-44,10,0.00
2013-3-23,41.1,27.8,16.2,25.3,14.7,-99.9,88,67,45,30.17,30.07,10,-44,10,0.00
2013-3-24,34.1,12.2,29.3,29.2,-50.2,-99.9,85,32,73,30.07,29.76,10,-600,16,0.01
2013-3-25,34.2,30.4,26.9,27.1,24.5,20.7,87,78,68,30.10,29.79,18,2,18,0.00
2013-3-26,40.1,34.0,28.9,29.8,26.3,23.2,80,73,65,30.24,30.09,14,2,14,0.00
2013-3-27,41.4,35.2,27.3,26.4,23.4,19.5,80,63,44,30.31,30.24,15,3,15,0.00
2013-3-28,44.4,34.8,25.7,27.3,22.2,19.3,79,62,40,30.35,30.30,10,2,11,0.00
2013-3-29,48.6,37.1,24.8,28.4,22.7,19.8,83,58,33,30.33,30.25,14,2,14,0.00
2013-3-30,55.2,43.1,30.5,41.7,31.1,20.0,90,63,43,30.25,29.80,19,3,19,0.01
2013-3-31,49.4,40.3,31.7,41.4,34.3,19.7,94,80,52,29.88,29.68,23,7,23,0.00
2013-4-1,35.5,28.7,24.8,20.4,10.3,-99.9,66,52,43,30.19,29.88,21,-41,21,0.00
2013-4-2,39.2,29.4,19.8,19.0,12.0,-99.9,79,53,35,30.33,30.18,19,-25,19,0.00
2013-4-3,44.2,31.7,22.5,20.8,13.2,-99.9,76,52,28,30.48,30.30,15,-26,15,0.00
2013-4-4,56.8,41.5,27.5,35.9,22.0,-99.9,64,50,40,30.31,29.95,25,-23,25,0.00
2013-4-5,43.6,35.6,28.4,29.3,22.4,-99.9,87,64,51,30.25,30.02,11,-25,14,0.00
2013-4-6,61.2,44.4,33.8,49.6,29.3,-99.9,89,64,47,30.18,29.53,22,-44,22,0.11
2013-4-7,53.0,21.0,35.0,49.2,-31.0,-99.9,88,41,70,29.97,29.53,18,-489,22,0.00
2013-4-8,48.8,37.8,34.9,44.8,26.7,-99.9,95,81,82,30.00,29.61,14,-78,14,0.30
2013-4-9,40.3,37.2,35.4,38.4,36.1,34.0,97,96,93,30.03,29.89,12,4,20,1.09
2013-4-10,37.5,35.6,32.5,35.7,33.9,31.0,95,94,91,30.16,29.85,24,5,24,1.29
2013-4-11,36.7,35.5,34.3,35.4,34.1,32.4,97,95,92,29.96,29.59,28,10,28,0.70
2013-4-12,40.9,36.3,34.0,37.2,34.3,29.8,97,93,82,29.80,29.53,15,5,15,0.16
2013-4-13,37.6,34.6,29.0,30.3,28.2,25.0,89,78,64,30.01,29.78,21,7,22,0.02
2013-4-14,51.9,36.9,28.2,46.7,33.4,24.8,92,87,80,30.03,29.65,24,6,24,0.03
2013-4-15,62.0,51.4,40.6,52.0,45.6,36.1,96,82,49,29.94,29.63,27,6,29,0.36
2013-4-16,52.9,42.1,30.9,38.7,34.3,29.4,95,75,52,30.30,29.93,19,3,19,0.01
2013-4-17,42.6,39.4,36.8,41.4,35.7,32.4,96,87,74,30.33,29.88,22,6,22,0.68
2013-4-18,50.5,44.6,39.5,49.1,43.3,34.2,97,95,81,29.90,29.36,32,5,32,1.37
2013-4-19,39.4,32.5,30.1,35.2,18.2,-99.9,90,70,63,29.89,29.35,32,-70,32,0.00
2013-4-20,42.9,33.2,25.1,24.1,19.8,14.8,78,60,32,30.44,29.89,14,4,20,0.00
2013-4-21,47.1,38.7,28.8,31.4,25.3,20.8,85,60,39,30.54,30.30,19,4,19,0.00
2013-4-22,67.4,52.7,40.1,42.4,35.2,30.8,71,53,35,30.30,30.02,11,3,19,0.00
2013-4-23,54.4,43.9,36.3,48.5,38.8,32.0,93,83,54,30.02,29.86,11,3,16,0.38
2013-4-24,51.7,41.8,32.4,32.3,27.4,23.8,84,59,35,30.04,29.93,19,4,19,0.00
2013-4-25,51.2,43.6,36.2,36.6,32.0,27.6,90,65,41,30.30,29.97,26,6,26,0.04
2013-4-26,67.7,53.5,36.6,48.1,38.6,27.9,77,58,41,30.31,30.15,26,5,26,0.00
2013-4-27,68.3,57.6,46.8,50.5,45.2,40.1,88,65,47,30.23,29.99,13,2,13,0.00
2013-4-28,70.0,56.8,47.0,51.4,45.6,40.7,91,67,45,29.99,29.78,12,1,12,0.00
2013-4-29,72.0,60.6,48.7,57.3,52.2,47.1,95,75,51,29.84,29.72,16,3,16,0.01
2013-4-30,85.9,72.2,60.1,62.9,57.3,51.6,85,63,31,29.86,29.68,29,6,29,0.00
2013-5-1,84.8,69.9,48.4,59.3,54.8,39.8,81,61,32,30.17,29.86,18,4,18,0.00
2013-5-2,56.9,47.0,38.0,47.7,39.6,34.6,95,76,62,30.23,30.14,13,3,15,0.97
2013-5-3,48.6,38.1,36.1,46.0,26.3,-99.9,97,84,85,30.18,30.01,6,-103,11,0.51
2013-5-4,68.2,55.7,45.1,51.0,46.2,42.0,90,72,51,30.06,29.99,10,2,14,0.01
2013-5-5,70.1,57.8,43.2,49.0,43.6,39.0,86,61,42,30.06,29.99,11,2,13,0.00
2013-5-6,73.0,60.6,49.2,46.0,39.1,32.0,64,48,22,30.05,29.97,7,2,10,0.00
2013-5-7,74.4,62.0,43.7,49.0,42.1,35.0,79,51,32,30.04,29.98,9,2,11,0.00
2013-5-8,79.7,62.6,41.9,51.0,44.0,39.0,90,55,25,30.02,29.94,7,1,10,0.00
2013-5-9,69.8,56.4,42.3,59.0,48.6,41.0,94,77,55,29.94,29.87,7,2,16,0.29
2013-5-10,47.9,43.3,37.4,44.0,40.9,36.0,95,91,84,29.98,29.82,8,2,14,1.15
2013-5-11,53.3,44.6,35.3,50.0,36.3,27.0,97,75,42,30.01,29.77,14,4,26,0.02
2013-5-12,52.2,42.6,34.9,34.0,28.4,25.0,87,59,36,30.12,30.02,12,5,17,0.00
2013-5-13,58.8,44.9,28.5,38.0,32.0,27.0,95,64,34,30.19,29.96,9,2,14,0.00
2013-5-14,81.3,65.3,47.1,59.0,49.1,32.0,67,57,37,29.95,29.49,13,4,36,0.00
2013-5-15,77.1,70.0,53.6,61.0,49.8,45.0,76,50,34,29.80,29.52,14,4,19,0.00
2013-5-16,79.4,62.9,52.9,55.0,43.7,29.0,78,51,34,29.97,29.80,12,3,16,0.00
2013-5-17,58.6,53.3,47.4,49.0,43.5,35.0,95,71,44,30.10,29.96,14,4,17,0.54
2013-5-18,75.5,62.0,50.7,63.0,53.0,45.0,85,73,58,30.08,29.94,11,3,13,0.00
2013-5-19,82.6,70.2,55.8,68.0,61.3,52.0,89,74,59,29.94,29.68,9,2,18,0.00
2013-5-20,83.9,75.4,66.8,66.0,61.6,58.0,87,64,44,29.71,29.62,12,3,23,0.03
2013-5-21,78.2,69.2,59.1,65.0,60.9,56.0,94,76,52,29.66,29.57,15,4,20,0.09
2013-5-22,66.3,59.5,53.8,65.0,57.4,53.0,97,93,82,29.73,29.59,5,1,9,1.28
2013-5-23,54.9,48.2,37.7,53.0,44.0,35.0,96,86,68,30.31,29.75,6,2,13,0.41
2013-5-24,60.3,46.0,34.7,43.0,35.7,31.0,92,69,47,30.45,30.31,10,2,11,0.00
2013-5-25,59.6,49.9,38.8,42.0,36.2,32.0,90,61,38,30.41,30.30,8,2,13,0.00
2013-5-26,63.8,51.8,35.2,45.0,40.2,33.0,93,67,45,30.31,30.18,10,3,14,0.00
2013-5-27,54.2,50.8,48.9,50.0,46.7,40.0,96,86,65,30.17,29.90,10,5,16,0.02
2013-5-28,71.9,59.4,48.8,67.0,57.8,48.0,97,94,81,29.90,29.69,11,2,14,1.14
2013-5-29,82.6,70.1,57.6,68.0,63.4,57.0,98,81,60,29.88,29.75,10,2,14,0.00
2013-5-30,84.9,75.2,63.9,71.0,67.1,62.0,93,77,60,29.86,29.70,13,4,25,0.45
2013-5-31,76.1,68.4,62.0,68.0,63.5,61.0,97,85,63,29.80,29.67,12,4,19,0.25
2013-6-1,76.2,70.1,61.2,67.0,64.2,58.0,95,82,64,29.66,29.57,9,3,16,0.08
2013-6-2,61.4,54.3,45.4,58.0,47.4,43.0,91,78,59,30.01,29.62,10,2,20,0.00
2013-6-3,69.6,56.2,41.6,51.0,44.1,39.0,97,67,42,30.09,30.00,8,2,11,0.00
2013-6-4,70.5,58.9,51.8,51.0,45.1,39.0,81,61,47,30.16,30.07,10,2,13,0.00
2013-6-5,62.4,54.3,50.4,52.0,48.0,44.0,90,80,53,30.13,29.97,11,2,14,0.06
2013-6-6,60.0,54.2,51.2,54.0,50.2,47.0,94,87,76,29.97,29.91,6,2,8,0.12
2013-6-7,71.4,59.3,48.1,52.0,46.8,42.0,87,66,37,29.98,29.90,7,1,13,0.00
2013-6-8,70.7,58.9,44.9,55.0,49.0,43.0,91,72,50,30.01,29.90,6,2,10,0.00
2013-6-9,74.7,63.6,52.0,63.0,56.2,49.0,89,77,63,30.02,29.82,12,3,13,0.00
2013-6-10,76.4,66.2,57.1,67.0,61.6,55.0,94,85,71,29.83,29.75,6,1,9,0.00
2013-6-11,82.2,71.0,55.8,67.0,62.8,55.0,97,77,56,29.88,29.76,9,2,11,0.00
2013-6-12,73.8,67.0,58.8,66.0,63.1,58.0,97,87,74,29.89,29.60,10,2,16,1.12
2013-6-13,75.7,64.7,52.7,61.0,55.7,50.0,97,74,53,30.05,29.67,10,2,14,0.00
2013-6-14,75.4,62.8,52.5,58.0,51.4,47.0,90,68,49,30.12,30.00,7,1,9,0.00
2013-6-15,78.6,66.1,54.6,70.0,60.9,48.0,96,84,72,30.05,29.78,8,2,20,1.63
2013-6-16,81.8,72.0,59.4,67.0,61.7,56.0,97,73,42,29.87,29.79,11,4,15,0.01
2013-6-17,83.8,68.3,56.5,66.0,57.6,52.0,92,71,41,29.94,29.82,9,2,16,0.13
2013-6-18,69.3,59.8,51.4,58.0,50.5,41.0,90,73,51,30.08,29.93,9,2,13,0.00
2013-6-19,74.5,62.6,44.0,54.0,47.6,41.0,91,60,44,30.14,30.06,9,2,11,0.00
2013-6-20,85.0,71.1,55.9,65.0,54.2,40.0,66,56,45,30.13,30.04,7,1,10,0.00
2013-6-21,75.1,69.9,64.6,69.0,64.2,56.0,97,82,65,30.08,29.84,10,2,22,0.73
2013-6-22,78.3,71.1,65.9,71.0,67.4,64.0,96,88,78,30.07,29.90,9,3,12,0.52
2013-6-23,86.7,75.5,64.2,75.0,68.5,63.0,96,79,63,29.97,29.83,14,4,17,0.00
2013-6-24,81.1,72.8,67.4,70.0,67.7,65.0,95,84,63,29.97,29.80,11,2,14,0.00
2013-6-25,81.7,71.1,65.6,73.0,68.0,64.0,97,90,75,29.91,29.77,9,2,14,1.08
2013-6-26,81.2,71.8,66.1,71.0,67.5,64.0,95,86,69,29.78,29.67,4,1,15,0.00
2013-6-27,85.4,72.6,63.5,73.0,67.7,61.0,97,85,61,29.74,29.64,11,2,14,0.32
2013-6-28,76.2,68.9,62.5,65.0,63.0,61.0,96,82,63,29.67,29.56,14,3,18,0.31
2013-6-29,73.7,65.8,61.6,63.0,59.9,56.0,96,82,58,29.79,29.57,6,2,13,0.26
2013-6-30,78.6,67.7,58.5,61.0,52.9,45.0,82,61,37,30.00,29.80,8,2,13,0.01
2013-7-1,78.9,68.4,56.9,57.0,51.0,45.0,75,55,38,30.08,30.00,10,2,15,0.00
2013-7-2,72.7,63.0,55.9,54.0,51.0,47.0,85,66,46,30.09,30.05,9,1,12,0.00
2013-7-3,67.7,63.1,59.1,62.0,59.0,53.0,94,87,78,30.05,30.00,4,1,5,0.00
2013-7-4,81.2,71.4,60.5,66.0,61.4,57.0,97,74,46,30.07,29.99,8,1,11,0.00
2013-7-5,84.5,74.6,63.6,68.0,62.9,58.0,88,68,51,30.04,29.96,7,2,13,0.00
2013-7-6,85.4,73.5,64.0,69.0,63.8,60.0,91,74,45,30.01,29.91,6,1,9,0.00
2013-7-7,86.4,77.2,67.6,74.0,69.5,65.0,94,78,58,29.95,29.87,8,2,10,0.00
2013-7-8,85.6,76.0,70.0,76.0,71.2,68.0,94,85,72,29.95,29.86,12,3,18,0.20
2013-7-9,82.3,73.8,65.7,76.0,70.6,65.0,97,90,77,29.95,29.77,11,2,16,0.12
2013-7-10,76.7,72.9,60.9,74.0,64.1,57.0,96,75,54,29.97,29.78,12,3,22,0.00
2013-7-11,79.2,66.4,53.6,65.0,56.3,52.0,96,72,48,30.08,29.97,7,1,10,0.00
2013-7-12,83.7,67.6,49.5,64.0,54.8,48.0,96,67,38,30.14,30.05,5,1,12,0.00
2013-7-13,83.6,71.1,54.1,65.0,59.3,52.0,96,69,47,30.14,30.07,7,2,12,0.00
2013-7-14,86.8,75.1,60.4,72.0,66.0,59.0,95,75,54,30.19,30.13,5,1,12,0.00
2013-7-15,88.7,76.8,65.2,76.0,70.8,64.0,97,82,64,30.23,30.18,7,1,11,0.01
2013-7-16,91.3,82.0,72.2,77.0,74.3,70.0,95,78,60,30.24,30.17,7,2,11,0.00
2013-7-17,91.7,82.8,73.7,77.0,74.4,71.0,94,77,56,30.24,30.10,11,3,17,0.00
2013-7-18,91.9,82.9,72.2,77.0,73.6,70.0,96,75,55,30.12,29.85,12,4,17,0.00
2013-7-19,89.8,82.7,71.6,75.0,72.2,65.0,81,71,60,29.84,29.67,20,8,24,0.00
2013-7-20,82.7,70.4,62.3,66.0,61.7,56.0,92,75,52,29.93,29.75,11,2,16,0.00
2013-7-21,78.9,67.3,60.5,68.0,61.0,55.0,95,81,61,29.95,29.85,8,2,12,0.60
2013-7-22,84.6,74.2,62.5,71.0,67.3,61.0,97,80,58,29.86,29.64,9,2,14,0.01
2013-7-23,74.4,68.3,55.5,69.0,59.0,53.0,91,73,56,29.96,29.65,9,2,13,0.02
2013-7-24,72.7,62.4,52.4,56.0,52.8,50.0,93,73,53,30.05,29.97,6,1,10,0.00
2013-7-25,79.6,66.1,49.5,63.0,56.9,48.0,96,74,56,30.07,29.94,10,2,13,0.00
2013-7-26,70.1,65.5,59.1,66.0,62.2,57.0,95,89,78,29.95,29.82,7,2,13,0.70
2013-7-27,60.2,56.1,52.0,56.0,50.0,47.0,94,80,66,29.90,29.84,12,4,16,0.01
2013-7-28,65.6,58.0,51.1,55.0,51.5,49.0,93,79,65,29.97,29.81,13,5,17,0.01
2013-7-29,74.1,62.6,53.4,60.0,55.4,51.0,92,78,61,30.16,29.97,7,2,10,0.00
2013-7-30,75.5,64.8,53.0,65.0,59.9,52.0,96,85,63,30.17,30.07,7,1,7,0.53
2013-7-31,77.4,65.2,58.4,68.0,63.0,57.0,97,93,72,30.07,29.91,5,1,13,0.34
2013-8-1,75.9,66.4,57.7,63.0,57.8,55.0,97,76,49,29.95,29.89,10,3,18,0.02
2013-8-2,78.8,68.6,57.3,68.0,60.9,55.0,95,78,54,29.91,29.81,8,2,12,0.15
2013-8-3,76.1,67.1,55.6,58.0,54.7,51.0,93,66,48,30.08,29.92,9,1,13,0.00
2013-8-4,73.9,64.0,55.0,60.0,56.6,53.0,94,78,54,30.20,30.09,6,1,8,0.00
2013-8-5,73.6,64.0,56.6,64.0,58.6,53.0,91,83,67,30.11,29.85,8,1,11,0.01
2013-8-6,82.1,72.0,61.7,71.0,66.5,60.0,96,83,65,29.84,29.75,10,3,12,0.01
2013-8-7,80.1,73.0,63.2,72.0,66.3,61.0,95,81,61,29.93,29.71,7,2,13,0.04
2013-8-8,76.9,66.9,55.2,62.0,56.0,50.0,97,71,42,30.03,29.93,7,1,10,0.01
2013-8-9,78.4,66.7,52.5,66.0,58.2,50.0,92,75,59,30.03,29.94,12,2,14,0.00
2013-8-10,75.7,65.0,52.1,63.0,57.3,51.0,96,78,56,30.11,30.03,5,1,8,0.00
2013-8-11,72.4,63.1,52.0,65.0,59.6,51.0,96,88,77,30.11,30.00,7,1,9,0.03
2013-8-12,80.4,69.9,61.9,68.0,63.9,58.0,97,82,54,30.00,29.85,5,1,9,0.19
2013-8-13,70.9,59.9,50.5,56.0,50.0,46.0,94,71,50,30.15,29.96,5,1,13,0.00
2013-8-14,72.2,60.3,49.7,53.0,49.6,44.0,92,70,47,30.21,30.11,7,1,9,0.00
2013-8-15,77.4,64.9,53.0,59.0,53.1,49.0,93,68,39,30.13,30.05,5,1,9,0.00
2013-8-16,80.6,66.4,54.1,62.0,55.6,52.0,94,71,45,30.17,30.09,7,1,9,0.00
2013-8-17,81.8,66.0,49.8,63.0,55.6,49.0,96,73,45,30.23,30.15,8,1,10,0.00
2013-8-18,82.1,67.6,50.0,64.0,57.0,49.0,96,72,47,30.20,30.07,6,1,8,0.00
2013-8-19,81.8,69.5,52.9,65.0,60.1,51.0,95,74,51,30.08,29.98,14,2,14,0.00
2013-8-20,85.7,73.8,60.0,69.0,64.9,59.0,96,76,52,30.05,29.97,9,2,15,0.00
2013-8-21,88.0,78.4,69.2,72.0,68.1,64.0,86,71,56,30.00,29.86,12,5,19,0.00
2013-8-22,77.7,69.5,56.7,72.0,65.8,55.0,96,88,80,30.09,29.95,10,2,22,0.41
2013-8-23,80.3,68.1,54.9,64.0,59.1,53.0,95,75,47,30.16,30.09,7,1,10,0.00
2013-8-24,83.7,68.9,50.8,67.0,59.8,50.0,97,75,52,30.24,30.14,8,1,12,0.00
2013-8-25,88.8,77.4,66.3,71.0,65.4,58.0,83,68,46,30.17,30.05,15,5,20,0.00
2013-8-26,89.3,79.5,72.1,77.0,70.6,65.0,81,74,62,30.08,29.90,12,5,17,0.00
2013-8-27,93.2,84.3,74.2,76.0,74.1,70.0,87,72,57,29.91,29.74,16,5,21,0.00
2013-8-28,85.0,75.6,64.9,75.0,69.6,62.8,95,83,64,30.00,29.77,9,1,9,0.00
2013-8-29,89.0,76.1,61.6,71.6,67.3,60.4,96,76,52,30.05,29.94,11,1,11,0.00
2013-8-30,92.6,74.6,65.8,77.9,68.9,62.1,93,83,59,29.94,29.72,18,3,25,0.36
2013-8-31,79.8,69.1,60.6,69.2,64.2,59.2,97,85,68,29.84,29.76,9,1,9,0.00
2013-9-1,82.6,68.8,60.2,72.6,65.2,59.1,97,89,65,29.80,29.66,13,2,13,0.39
2013-9-2,70.2,63.2,54.7,61.6,57.6,50.9,96,83,65,29.98,29.78,14,1,14,0.01
2013-9-3,72.9,60.2,47.9,58.2,52.9,46.1,96,79,50,30.07,29.97,8,2,10,0.01
2013-9-4,80.2,65.4,50.2,66.1,59.0,48.8,97,82,59,30.12,30.01,10,3,12,0.00
2013-9-5,71.0,63.7,51.4,61.6,53.8,47.3,92,71,51,30.26,30.11,15,2,15,0.00
2013-9-6,84.5,67.8,46.2,69.4,59.2,44.7,96,76,49,30.21,29.95,12,2,12,0.00
2013-9-7,80.8,72.3,66.6,74.7,67.4,62.9,96,85,66,29.97,29.84,12,2,12,0.71
2013-9-8,72.3,67.0,63.6,65.7,63.3,60.7,92,88,75,30.04,29.93,13,3,13,0.00
2013-9-9,88.7,77.2,65.5,78.4,71.5,63.3,95,83,69,29.96,29.74,12,2,12,0.02
2013-9-10,92.5,83.3,75.8,73.0,67.4,64.5,74,60,42,29.89,29.76,23,6,23,0.00
2013-9-11,80.2,72.7,65.3,68.7,66.1,62.6,94,80,64,30.03,29.88,14,2,14,0.01
2013-9-12,75.0,65.2,53.9,64.7,58.1,46.1,97,79,53,30.10,29.92,14,1,14,0.00
2013-9-13,66.0,54.1,43.4,48.9,44.4,41.0,92,72,45,30.19,30.09,11,1,11,0.00
2013-9-14,70.5,55.9,40.0,50.1,45.7,38.4,96,71,46,30.17,30.00,13,2,13,0.00
2013-9-15,60.5,55.9,53.0,57.2,52.0,46.3,95,87,64,30.22,29.98,6,1,12,0.50
2013-9-16,63.8,52.0,41.3,50.5,44.9,39.1,94,78,58,30.38,30.22,14,2,14,0.00
2013-9-17,69.5,55.2,39.1,56.4,49.3,37.8,96,82,58,30.34,30.11,9,1,10,0.00
2013-9-18,78.8,66.8,57.3,68.6,61.6,54.3,94,84,69,30.11,29.88,12,1,12,0.16
2013-9-19,82.7,71.0,65.6,74.7,68.0,64.1,97,91,75,29.89,29.70,19,2,19,0.73
2013-9-20,72.6,65.4,57.0,66.2,61.2,53.7,96,87,71,29.77,29.66,12,5,18,0.02
2013-9-21,57.9,53.0,44.5,54.0,47.8,42.3,95,83,66,29.94,29.77,15,2,15,0.00
2013-9-22,63.3,51.5,42.5,49.4,43.8,38.8,94,77,52,30.08,29.94,13,1,13,0.00
2013-9-23,64.5,52.3,38.4,52.9,46.7,37.1,96,82,63,30.13,30.05,13,1,13,0.01
2013-9-24,68.0,57.7,46.5,57.7,51.7,44.6,96,82,57,30.07,29.95,14,2,14,0.00
2013-9-25,68.3,57.7,48.4,58.8,52.3,46.8,96,83,60,29.99,29.94,12,2,12,0.01
2013-9-26,75.0,60.6,48.1,62.0,53.5,46.5,97,80,50,30.08,29.97,7,1,10,0.01
2013-9-27,79.0,62.8,46.1,59.1,53.5,44.9,97,74,46,30.15,30.04,14,1,14,0.01
2013-9-28,80.3,66.9,51.8,65.4,58.5,49.0,95,76,53,30.06,29.81,20,3,20,0.23
2013-9-29,70.9,57.5,47.2,53.2,48.4,42.5,96,75,38,30.03,29.91,9,1,9,0.01
2013-9-30,72.0,58.0,41.0,53.0,47.8,39.7,96,72,47,29.99,29.82,14,1,14,0.00
2013-10-1,80.0,66.1,55.9,64.6,59.0,49.7,94,79,56,29.93,29.79,21,4,21,0.00
2013-10-2,77.0,61.2,44.8,56.9,47.2,36.7,94,66,25,30.09,29.92,10,1,10,0.00
2013-10-3,76.4,66.0,57.6,67.9,62.1,53.1,96,88,71,29.97,29.81,13,1,13,0.68
2013-10-4,65.0,62.1,58.6,64.4,61.3,57.8,98,97,96,30.01,29.85,16,1,16,0.11
2013-10-5,70.2,64.1,60.0,69.5,63.5,59.4,98,98,94,29.95,29.70,15,1,15,0.83
2013-10-6,64.2,53.7,46.2,63.5,46.8,42.6,98,79,56,29.73,29.63,16,4,16,0.08
2013-10-7,64.7,51.5,42.0,50.1,45.4,40.3,96,81,49,30.08,29.68,16,4,16,0.04
2013-10-8,75.2,57.1,38.6,54.3,47.1,37.6,97,73,39,30.17,30.08,12,1,12,0.00
2013-10-9,73.1,59.2,47.3,54.1,49.0,42.8,94,71,38,30.21,30.12,10,1,10,0.00
2013-10-10,72.3,57.0,41.5,57.3,50.0,40.2,97,80,46,30.17,30.05,10,1,10,0.00
2013-10-11,74.5,61.8,49.8,60.6,54.7,47.9,97,79,56,30.06,29.94,14,2,14,0.01
2013-10-12,67.4,59.9,45.4,62.0,52.7,38.1,93,78,53,30.13,29.90,17,2,17,0.03
2013-10-13,61.3,47.3,36.4,44.6,39.4,34.3,94,76,46,30.41,30.13,18,2,18,0.00
2013-10-14,59.4,46.5,33.2,47.5,39.4,-99.9,97,80,57,30.43,30.15,16,-8,16,0.00
2013-10-15,59.1,53.5,46.5,58.0,50.3,42.4,96,89,79,30.15,29.72,22,3,22,0.31
2013-10-16,54.1,49.3,46.3,50.7,46.8,42.3,95,91,85,29.91,29.76,14,4,14,0.02
2013-10-17,51.1,45.6,40.6,46.0,42.4,38.4,95,89,72,29.90,29.79,12,1,12,0.13
2013-10-18,49.2,43.5,36.3,43.6,39.4,33.9,95,85,77,29.93,29.80,19,4,19,0.00
2013-10-19,51.1,43.1,36.4,39.7,36.9,33.4,94,80,53,29.90,29.73,25,4,25,0.03
2013-10-20,50.2,42.2,31.1,46.4,38.9,29.8,96,88,63,29.87,29.71,13,2,13,0.09
2013-10-21,47.7,39.6,31.5,44.3,32.3,24.3,91,75,61,29.92,29.73,19,6,19,0.00
2013-10-22,44.4,35.9,28.1,33.2,28.3,23.8,86,74,59,29.97,29.90,13,4,13,0.00
2013-10-23,43.4,34.9,25.6,30.3,26.6,22.4,91,73,46,30.01,29.93,16,3,16,0.00
2013-10-24,42.7,35.7,31.7,30.3,27.7,25.6,83,73,57,30.29,30.00,13,3,13,0.00
2013-10-25,49.6,39.1,25.0,32.8,27.6,22.3,92,66,45,30.38,29.90,29,6,29,0.00
2013-10-26,50.7,45.8,38.5,37.9,31.7,27.0,74,58,45,30.05,29.76,37,7,37,0.00
2013-10-27,53.4,41.3,27.6,34.6,30.7,24.9,92,68,43,30.04,29.90,19,4,19,0.00
2013-10-28,43.5,39.8,34.1,36.3,31.4,-99.9,85,74,66,30.43,30.03,11,-9,16,0.00
2013-10-29,51.0,42.4,33.6,44.4,38.1,28.4,95,85,76,30.41,30.15,12,2,12,0.00
2013-10-30,55.2,49.9,42.5,54.1,48.5,41.1,97,95,90,30.15,29.74,15,1,15,0.00
2013-10-31,61.1,56.3,44.3,60.2,55.1,41.8,97,96,91,29.74,29.18,22,3,22,1.04
2013-11-1,45.5,43.3,41.5,42.6,40.8,38.8,94,91,87,29.71,29.26,29,6,29,0.04
2013-11-2,45.7,42.1,38.5,41.3,38.4,33.8,94,87,66,30.15,29.71,8,0,8,0.01
2013-11-3,52.0,41.4,27.9,40.3,35.6,26.5,96,81,53,30.30,30.14,13,1,13,0.00
2013-11-4,54.1,48.8,43.1,45.2,40.9,38.0,86,75,60,30.26,30.06,18,4,18,0.00
2013-11-5,54.9,51.1,47.5,49.9,47.3,44.1,94,87,77,30.24,29.88,17,2,17,0.05
2013-11-6,55.3,43.8,29.3,53.9,40.5,24.8,95,88,72,30.13,29.70,13,5,17,0.37
2013-11-7,40.2,33.1,24.8,33.1,28.2,22.5,92,82,69,30.23,30.13,17,3,17,0.00
2013-11-8,45.9,36.4,25.0,34.7,29.8,23.0,95,78,63,30.31,29.86,15,2,15,0.00
2013-11-9,53.0,46.4,39.9,41.1,36.5,25.9,80,68,55,30.03,29.75,31,10,31,0.00
2013-11-10,46.9,41.9,36.9,32.7,30.4,27.0,72,64,52,30.30,30.03,22,6,22,0.00
2013-11-11,42.8,32.9,23.6,34.4,25.6,14.2,93,75,64,30.54,30.04,11,3,15,0.09
2013-11-12,29.7,23.8,18.1,18.8,15.3,13.5,84,70,53,30.71,30.54,17,4,17,0.00
2013-11-13,40.5,30.3,18.6,21.8,16.8,13.6,82,59,38,30.57,30.07,27,9,29,0.00
2013-11-14,46.2,39.7,34.1,30.8,26.0,18.8,68,58,51,30.08,29.89,24,7,24,0.00
2013-11-15,54.0,44.3,37.7,37.3,32.6,28.9,87,64,51,29.93,29.88,13,4,13,0.00
2013-11-16,58.6,48.2,37.6,55.6,46.0,34.1,96,92,84,29.90,29.50,23,4,23,0.10
2013-11-17,63.3,52.1,39.5,60.9,49.3,33.5,97,90,77,29.61,28.99,38,7,38,0.67
2013-11-18,39.5,33.1,24.7,34.5,25.7,20.0,83,74,65,30.25,29.61,28,9,28,0.00
2013-11-19,40.0,29.5,19.8,29.7,24.1,17.3,92,81,58,30.40,30.25,10,2,10,0.00
2013-11-20,43.4,36.9,31.2,34.0,30.2,27.1,94,77,55,30.30,30.12,16,3,16,0.07
2013-11-21,45.0,40.6,35.7,40.3,37.8,34.1,95,90,82,30.23,30.12,8,0,8,0.00
2013-11-22,38.6,31.1,23.8,36.2,26.0,16.6,92,81,65,30.46,30.22,16,3,16,0.02
2013-11-23,24.1,17.9,10.1,16.6,7.7,2.2,74,64,50,30.73,30.39,21,5,21,0.00
2013-11-24,25.5,16.2,6.6,8.6,-3.0,-99.9,84,55,41,30.72,30.31,24,-75,24,0.00
2013-11-25,29.1,25.6,21.3,25.3,19.4,6.1,92,78,50,30.31,30.04,27,8,27,0.00
2013-11-26,30.9,25.3,12.3,26.3,17.8,4.0,87,73,51,30.20,30.02,23,4,23,0.00
2013-11-27,26.2,16.8,8.2,17.2,3.0,-99.9,88,67,54,30.28,30.18,17,-60,17,0.00
2013-11-28,27.6,20.5,10.7,17.8,14.1,7.7,91,76,65,30.53,30.21,13,2,13,0.00
2013-11-29,32.2,22.0,7.5,23.4,15.6,4.0,92,77,54,30.67,30.40,10,1,10,0.00
2013-11-30,45.7,34.8,27.5,33.1,27.7,21.5,88,75,59,30.40,30.03,12,2,12,0.00
2013-12-1,41.8,33.0,25.1,30.5,27.2,22.8,95,80,59,30.13,29.99,5,1,9,0.00
2013-12-2,40.1,33.1,22.7,34.3,29.3,20.9,95,86,73,29.99,29.80,16,2,16,0.03
2013-12-3,39.4,37.4,33.3,38.4,36.3,31.7,97,96,94,29.80,29.69,16,4,16,0.21
2013-12-4,50.3,43.0,36.7,49.8,42.0,33.3,98,96,86,29.77,29.44,28,4,28,0.04
2013-12-5,36.7,24.1,14.8,33.3,17.1,8.0,90,74,64,30.27,29.57,29,11,29,0.00
2013-12-6,16.3,10.9,6.6,8.2,3.9,0.3,80,73,62,30.57,30.24,15,5,15,0.00
2013-12-7,14.4,6.5,0.4,3.8,-0.1,-4.3,84,74,60,30.73,30.57,13,3,13,0.00
2013-12-8,24.9,16.7,3.0,23.4,12.9,-1.3,94,85,68,30.66,29.96,16,2,16,0.00
2013-12-9,24.5,11.5,-4.3,23.0,6.3,-9.3,94,80,65,30.19,29.92,22,8,31,0.00
2013-12-10,18.0,7.5,-6.2,11.0,-5.0,-99.9,85,71,67,30.30,29.97,22,-62,26,0.00
2013-12-11,12.3,4.2,-6.9,9.2,-12.0,-99.9,87,65,57,30.57,30.29,19,-93,19,0.00
2013-12-12,15.8,7.7,-4.9,9.7,0.8,-10.6,79,73,66,30.55,30.22,18,7,18,0.00
2013-12-13,24.9,18.7,11.1,21.1,14.3,6.8,88,83,76,30.25,30.19,12,2,12,0.00
2013-12-14,26.5,22.9,18.0,23.7,20.6,15.7,93,91,86,30.21,29.93,17,3,17,0.00
2013-12-15,19.5,10.2,-0.1,17.0,3.0,-7.8,91,72,61,30.16,29.91,15,6,19,0.00
2013-12-16,18.7,7.9,-5.7,10.4,1.5,-10.8,88,75,54,30.21,30.03,13,3,13,0.00
2013-12-17,33.1,23.4,13.2,26.2,18.9,10.3,92,83,72,30.06,29.91,21,7,21,0.00
2013-12-18,34.0,23.8,9.8,26.5,15.2,5.8,85,70,45,30.13,29.78,18,4,18,0.00
2013-12-19,32.5,29.1,23.7,29.8,25.8,20.8,94,87,78,29.99,29.80,16,2,16,0.00
2013-12-20,30.3,26.8,24.7,28.8,25.0,22.8,94,93,92,29.89,29.79,8,2,11,0.00
2013-12-21,31.6,27.7,24.1,30.3,26.2,22.6,95,94,90,29.90,29.69,13,1,13,0.00
2013-12-22,30.7,25.0,17.8,28.3,22.9,15.2,95,92,89,30.11,29.67,11,2,11,0.00
2013-12-23,20.0,11.4,0.5,18.1,8.4,-3.4,94,87,82,30.42,30.11,13,3,13,0.00
2013-12-24,18.1,5.4,-5.2,9.0,0.7,-8.8,87,81,64,30.58,30.37,9,2,9,0.00
2013-12-25,22.1,19.0,12.1,19.8,16.0,9.0,91,88,84,30.37,30.09,13,4,13,0.00
2013-12-26,25.1,19.9,11.0,22.7,16.0,7.8,91,85,77,30.27,30.09,14,2,14,0.00
2013-12-27,37.2,27.7,10.8,30.6,23.5,8.4,94,85,76,30.29,30.01,21,3,21,0.10
2013-12-28,44.4,36.8,27.3,34.2,30.3,24.3,90,78,66,30.06,29.75,18,4,18,0.29
2013-12-29,40.9,21.2,-0.8,31.1,15.0,-6.7,90,77,68,30.22,29.72,17,4,17,0.00
2013-12-30,1.2,-1.3,-10.9,-3.3,-25.9,-99.9,82,58,57,30.36,30.22,11,-186,11,0.00
2013-12-31,6.3,3.6,-0.1,2.2,-1.4,-4.5,84,79,70,30.42,30.23,13,4,13,0.00
2014-1-1,13.2,7.6,0.8,8.6,2.3,-7.9,83,79,66,30.42,30.31,13,2,13,0.00
2014-1-2,15.7,7.6,-4.8,6.7,1.6,-10.1,86,76,63,30.46,30.27,9,2,13,0.00